Location: Harwich
(41.7160°N, 69.9939°W)
Time: 15:20:20
(UTC+02:00)

BlueWalker 3 - Pass Details

Date: 28 February 2024
Orbit: 485 x 495 km, 53.2° (Epoch: 23 April)

Event Time Altitude Azimuth Distance (km) Brightness Sun altitude
Rises 00:42:48 0° 309° (NW) 2,562 6.5 -14.8°
Reaches altitude 10° 00:45:37 10° 331° (NNW) 1,677 5.0 -15.3°
Maximum altitude 00:48:05 16° 12° (NNE) 1,326 4.0 -15.8°
Enters shadow 00:49:15 15° 34° (NNE) 1,411 3.9 -16.0°
